Weather History for Henderson, KY

Change the Weather History Date:

Tuesday, October 8, 2013

  Actual Average Record
Temperature  
Mean Temperature 56 °F -  
Max Temperature 69 °F 72 °F 93 °F (2007)
Min Temperature 44 °F 47 °F 28 °F (1987)
Degree Days  
Heating Degree Days 8    
Growing Degree Days 6 (Base 50)    
Moisture  
Dew Point 44 °F    
Average Humidity 66    
Maximum Humidity 93    
Minimum Humidity 33    
Precipitation  
Precipitation 0.00 in - - ()
Sea Level Pressure  
Sea Level Pressure 30.17 in    
Wind  
Wind Speed 4 mph (East)    
Max Wind Speed 15 mph    
Max Gust Speed 21 mph    
Visibility 10 miles    
Events      
Averages and records for this station are not official NWS values.
T = Trace of Precipitation, MM = Missing Value Source: NWS Daily Summary

Daily Weather History Graph

Daily Weather History Graph

Search for Another Location

Airport:

Trip Planner

Search our weather history database for the weather conditions in past years. The results will help you decide how hot, cold, wet, or windy it might be!

Date:

Astronomy

Oct. 08, 2013 Rise Set
Actual Time 6:52 AM CDT 6:22 PM CDT
Civil Twilight 6:26 AM CDT 6:49 PM CDT
Nautical Twilight 5:56 AM CDT 7:19 PM CDT
Astronomical Twilight 5:25 AM CDT 7:49 PM CDT
Moon 10:42 AM CDT (10/8) 9:03 PM CDT (10/8)
Length of Visible Light 12h 22m
Length of Day
11h 30m
Waxing Crescent, 16% of the Moon is Illuminated
Oct 8
Waxing Crescent
Oct 11
First Quarter
Oct 18
Full
Oct 26
Last Quarter
Nov 3
New

Hourly Weather History & Observations

Time (CDT) Temp. Windchill Dew Point Humidity Pressure Visibility Wind Dir Wind Speed Gust Speed Precip Events Conditions
12:15 AM 46.4 °F - 44.6 °F 93% 30.16 in 10.0 mi Calm Calm - N/A   Clear
12:35 AM 46.4 °F - 44.6 °F 93% 30.16 in 10.0 mi Calm Calm - N/A   Clear
12:55 AM 46.4 °F - 44.6 °F 93% 30.16 in 10.0 mi Calm Calm - N/A   Clear
1:15 AM 46.4 °F 43.5 °F 44.6 °F 93% 30.15 in 10.0 mi NW 5.8 mph - N/A   Clear
1:35 AM 48.2 °F - 44.6 °F 87% 30.16 in 10.0 mi Calm Calm - N/A   Clear
1:55 AM 46.4 °F 43.5 °F 44.6 °F 93% 30.17 in 10.0 mi SSE 5.8 mph - N/A   Clear
2:15 AM 48.2 °F - 46.4 °F 93% 30.16 in 10.0 mi Calm Calm - N/A   Clear
2:35 AM 46.4 °F - 44.6 °F 93% 30.16 in 10.0 mi Calm Calm - N/A   Clear
2:55 AM 46.4 °F - 44.6 °F 93% 30.16 in 10.0 mi Calm Calm - N/A   Clear
3:15 AM 46.4 °F - 42.8 °F 87% 30.16 in 10.0 mi Calm Calm - N/A   Clear
3:35 AM 46.4 °F - 44.6 °F 93% 30.16 in 10.0 mi Calm Calm - N/A   Clear
3:55 AM 48.2 °F - 46.4 °F 93% 30.16 in 10.0 mi NE 3.5 mph - N/A   Clear
4:15 AM 46.4 °F - 42.8 °F 87% 30.17 in 10.0 mi Calm Calm - N/A   Clear
4:35 AM 46.4 °F - 44.6 °F 93% 30.17 in 10.0 mi Calm Calm - N/A   Clear
4:55 AM 46.4 °F - 42.8 °F 87% 30.17 in 10.0 mi Calm Calm - N/A   Clear
5:15 AM 44.6 °F - 42.8 °F 93% 30.18 in 10.0 mi Calm Calm - N/A   Clear
5:35 AM 44.6 °F - 42.8 °F 93% 30.18 in 10.0 mi Calm Calm - N/A   Clear
5:55 AM 44.6 °F - 42.8 °F 93% 30.18 in 10.0 mi Calm Calm - N/A   Clear
6:15 AM 44.6 °F - 42.8 °F 93% 30.19 in 10.0 mi Calm Calm - N/A   Clear
6:35 AM 44.6 °F - 42.8 °F 93% 30.19 in 10.0 mi Calm Calm - N/A   Clear
6:55 AM 44.6 °F - 42.8 °F 93% 30.20 in 9.0 mi Calm Calm - N/A   Clear
7:15 AM 44.6 °F 42.2 °F 42.8 °F 93% 30.21 in 10.0 mi East 4.6 mph - N/A   Clear
7:35 AM 48.2 °F - 46.4 °F 93% 30.21 in 10.0 mi ESE 3.5 mph - N/A   Clear
7:55 AM 50.0 °F - 46.4 °F 87% 30.22 in 10.0 mi East 3.5 mph - N/A   Clear
8:15 AM 51.8 °F - 46.4 °F 82% 30.22 in 10.0 mi East 3.5 mph - N/A   Clear
8:35 AM 53.6 °F - 48.2 °F 82% 30.23 in 10.0 mi East 5.8 mph - N/A   Clear
8:55 AM 55.4 °F - 46.4 °F 72% 30.23 in 10.0 mi East 5.8 mph - N/A   Clear
9:15 AM 57.2 °F - 46.4 °F 67% 30.23 in 10.0 mi ESE 5.8 mph - N/A   Clear
9:35 AM 59.0 °F - 46.4 °F 63% 30.23 in 10.0 mi East 9.2 mph - N/A   Clear
9:55 AM 60.8 °F - 44.6 °F 55% 30.23 in 10.0 mi ESE 8.1 mph - N/A   Clear
10:15 AM 62.6 °F - 44.6 °F 52% 30.23 in 10.0 mi ESE 11.5 mph 17.3 mph N/A   Clear
10:35 AM 62.6 °F - 44.6 °F 52% 30.23 in 10.0 mi ESE 10.4 mph 16.1 mph N/A   Clear
10:55 AM 62.6 °F - 44.6 °F 52% 30.23 in 10.0 mi ESE 9.2 mph 18.4 mph N/A   Clear
11:15 AM 64.4 °F - 42.8 °F 45% 30.22 in 10.0 mi East 13.8 mph 18.4 mph N/A   Clear
11:35 AM 64.4 °F - 44.6 °F 49% 30.22 in 10.0 mi East 11.5 mph 18.4 mph N/A   Clear
11:55 AM 64.4 °F - 44.6 °F 49% 30.22 in 10.0 mi ENE 12.7 mph 19.6 mph N/A   Clear
12:15 PM 66.2 °F - 42.8 °F 43% 30.22 in 10.0 mi ENE 15.0 mph 18.4 mph N/A   Clear
12:35 PM 66.2 °F - 46.4 °F 49% 30.21 in 10.0 mi East 9.2 mph 20.7 mph N/A   Clear
12:55 PM 66.2 °F - 44.6 °F 46% 30.19 in 10.0 mi East 11.5 mph - N/A   Clear
1:15 PM 68.0 °F - 44.6 °F 43% 30.18 in 10.0 mi East 12.7 mph 17.3 mph N/A   Clear
1:35 PM 68.0 °F - 44.6 °F 43% 30.17 in 10.0 mi NE 11.5 mph 17.3 mph N/A   Clear
1:55 PM 68.0 °F - 44.6 °F 43% 30.16 in 10.0 mi ENE 13.8 mph 17.3 mph N/A   Clear
2:15 PM 69.8 °F - 44.6 °F 40% 30.15 in 10.0 mi NE 13.8 mph 20.7 mph N/A   Clear
2:35 PM 69.8 °F - 42.8 °F 38% 30.15 in 10.0 mi ENE 11.5 mph - N/A   Clear
2:55 PM 69.8 °F - 42.8 °F 38% 30.15 in 10.0 mi East 11.5 mph - N/A   Clear
3:15 PM 69.8 °F - 44.6 °F 40% 30.14 in 10.0 mi ENE 9.2 mph - N/A   Clear
3:35 PM 69.8 °F - 42.8 °F 38% 30.14 in 10.0 mi East 9.2 mph - N/A   Clear
3:55 PM 69.8 °F - 39.2 °F 33% 30.14 in 10.0 mi ENE 6.9 mph - N/A   Clear
4:15 PM 69.8 °F - 41.0 °F 35% 30.13 in 10.0 mi ENE 9.2 mph - N/A   Clear
4:35 PM 69.8 °F - 39.2 °F 33% 30.13 in 10.0 mi ENE 10.4 mph - N/A   Clear
4:55 PM 69.8 °F - 39.2 °F 33% 30.13 in 10.0 mi ENE 11.5 mph - N/A   Clear
5:15 PM 68.0 °F - 39.2 °F 35% 30.13 in 10.0 mi East 9.2 mph - N/A   Clear
5:35 PM 68.0 °F - 39.2 °F 35% 30.13 in 10.0 mi East 8.1 mph - N/A   Clear
5:55 PM 66.2 °F - 39.2 °F 37% 30.14 in 10.0 mi East 8.1 mph - N/A   Clear
6:15 PM 64.4 °F - 39.2 °F 40% 30.14 in 10.0 mi East 5.8 mph - N/A   Clear
6:35 PM 62.6 °F - 39.2 °F 42% 30.14 in 10.0 mi East 3.5 mph - N/A   Clear
6:55 PM 60.8 °F - 41.0 °F 48% 30.15 in 10.0 mi ENE 4.6 mph - N/A   Clear
7:15 PM 57.2 °F - 42.8 °F 59% 30.15 in 10.0 mi Calm Calm - N/A   Clear
7:35 PM 55.4 °F - 42.8 °F 63% 30.15 in 10.0 mi ENE 4.6 mph - N/A   Clear
7:55 PM 57.2 °F - 42.8 °F 59% 30.16 in 10.0 mi East 3.5 mph - N/A   Clear
8:15 PM 55.4 °F - 44.6 °F 67% 30.16 in 10.0 mi East 3.5 mph - N/A   Clear
8:35 PM 55.4 °F - 42.8 °F 63% 30.16 in 10.0 mi ENE 4.6 mph - N/A   Clear
8:55 PM 55.4 °F - 42.8 °F 63% 30.17 in 10.0 mi ENE 4.6 mph - N/A   Clear
9:15 PM 55.4 °F - 44.6 °F 67% 30.16 in 10.0 mi ENE 5.8 mph - N/A   Clear
9:35 PM 55.4 °F - 44.6 °F 67% 30.17 in 10.0 mi East 5.8 mph - N/A   Clear
9:55 PM 55.4 °F - 44.6 °F 67% 30.17 in 10.0 mi East 4.6 mph - N/A   Clear
10:15 PM 55.4 °F - 44.6 °F 67% 30.16 in 10.0 mi ENE 4.6 mph - N/A   Clear
10:35 PM 55.4 °F - 44.6 °F 67% 30.16 in 10.0 mi East 4.6 mph - N/A   Clear
10:55 PM 55.4 °F - 44.6 °F 67% 30.16 in 10.0 mi East 4.6 mph - N/A   Clear
11:15 PM 55.4 °F - 44.6 °F 67% 30.16 in 10.0 mi East 4.6 mph - N/A   Clear
11:35 PM 53.6 °F - 44.6 °F 72% 30.15 in 10.0 mi East 3.5 mph - N/A   Clear
11:55 PM 53.6 °F - 44.6 °F 72% 30.15 in 10.0 mi East 3.5 mph - N/A   Clear